Home   Weather   Mali Kosharyshcha   Past weeks
Flag for Ukraine

Past Weather in Mali Kosharyshcha, Ukraine — Yesterday and Last 2 Weeks

Now
61 °F

Clear.


Feels Like: 61 °F
Forecast: 71 / 48 °F
Wind: 1 mph from Southeast

Location: Kyiv

Current Time: Oct 15, 2019 at 7:34:04 pm

Latest Report: Oct 15, 2019 at 6:30 pm


Visibility: 10 mi

Pressure: 30.12 "Hg

Humidity: 68%

Dew Point: 50 °F

Location of Mali KosharyshchaLocation

Past Weather in Mali Kosharyshcha — Graph

°F

Mali Kosharyshcha Temperature Yesterday

Maximum temperature yesterday: 75 °F (at 3:00 pm)
Minimum temperature yesterday: 43 °F (at 5:00 am)
Average temperature yesterday: 57 °F

High & Low Weather Summary for the Past Weeks

 TemperatureHumidityPressure
High75 °F (Oct 3, 5:00 pm)100% (Oct 1, 6:00 am)30.18 "Hg (Oct 1, 6:00 am)
Low27 °F (Oct 8, 4:30 am)29% (Oct 14, 2:30 pm)29.47 "Hg (Sep 30, 8:30 pm)
Average52 °F71%29.93 "Hg
* Reported Sep 30 6:00 pm — Oct 15 6:00 pm, Mali Kosharyshcha. Weather by CustomWeather, © 2019

Note: Actual official high and low records may vary slightly from our data, if they occured in-between our weather recording intervals... More about our weather records

Advertising

Mali Kosharyshcha Weather History for the Previous 24 Hours

Scroll right to see more
 ConditionsComfort  
Time TempWeatherWind HumidityBarometerVisibility
6:00 pm
Tue, Oct 15
64 °FSunny.1 mph64%30.09 "Hg10 mi
5:30 pm70 °FSunny.3 mph53%30.09 "Hg10 mi
5:00 pm70 °FSunny.3 mph57%30.09 "Hg10 mi
4:30 pm73 °FPassing clouds.3 mph47%30.12 "HgN/A
4:00 pm75 °FClear.No wind41%30.12 "HgN/A
3:30 pm75 °FClear.1 mph41%30.12 "HgN/A
3:00 pm73 °FClear.3 mph44%30.12 "Hg6 mi
2:30 pm73 °FPassing clouds.3 mph44%30.12 "HgN/A
2:00 pm73 °FClear.3 mph44%30.12 "HgN/A
1:30 pm72 °FClear.3 mph47%30.12 "Hg6 mi
1:00 pm72 °FClear.3 mph50%30.15 "Hg6 mi
12:30 pm70 °FClear.1 mph53%30.15 "Hg6 mi
11:30 am66 °FPassing clouds.3 mph56%30.15 "HgN/A
11:00 am64 °FSunny.1 mph60%30.15 "Hg10 mi
10:30 am61 °FSunny.1 mph63%30.15 "Hg10 mi
10:00 am59 °FSunny.3 mph68%30.15 "Hg10 mi
9:30 am57 °FSunny.3 mph72%30.15 "Hg10 mi
9:00 am54 °FSunny.1 mph82%30.12 "Hg10 mi
8:30 am50 °FClear.1 mph100%30.12 "Hg5 mi
8:00 am45 °FClear.3 mph100%30.12 "Hg5 mi
7:30 am43 °FClear.3 mph100%30.12 "Hg6 mi
7:00 am43 °FClear.3 mph100%30.12 "Hg10 mi
6:30 am45 °FClear.3 mph100%30.12 "HgN/A
6:00 am43 °FClear.3 mph100%30.12 "HgN/A
5:30 am45 °FClear.3 mph100%30.12 "Hg6 mi
5:00 am43 °FClear.3 mph100%30.12 "Hg5 mi
4:30 am43 °FFog.3 mph100%30.09 "Hg3 mi
4:00 am43 °FFog.3 mph100%30.09 "Hg5 mi
3:30 am45 °FClear.3 mph100%30.09 "Hg4 mi
3:00 am45 °FClear.3 mph100%30.09 "Hg5 mi
2:30 am46 °FClear.3 mph100%30.09 "Hg6 mi
2:00 am45 °FClear.3 mph100%30.12 "Hg4 mi
1:30 am48 °FClear.3 mph94%30.12 "Hg4 mi
1:00 am45 °FClear.3 mph93%30.12 "Hg5 mi
12:30 am48 °FClear.3 mph94%30.12 "Hg5 mi
12:00 am52 °FClear.3 mph88%30.12 "Hg6 mi
11:30 pm
Mon, Oct 14
50 °FClear.3 mph88%30.12 "Hg6 mi
11:00 pm52 °FClear.3 mph77%30.12 "Hg6 mi
10:30 pm52 °FClear.6 mph77%30.12 "Hg6 mi
10:00 pm55 °FClear.6 mph72%30.12 "Hg10 mi
9:30 pm59 °FClear.6 mph59%30.09 "HgN/A
9:00 pm57 °FClear.6 mph55%30.09 "Hg6 mi
8:30 pm54 °FClear.3 mph63%30.09 "Hg6 mi
8:00 pm57 °FClear.6 mph59%30.09 "Hg6 mi
7:30 pm57 °FClear.6 mph59%30.12 "Hg5 mi
7:00 pm61 °FClear.6 mph52%30.12 "Hg5 mi
Weather by CustomWeather, © 2019

See weather overview